Flag for Pakistan Weather past 2 weeks in Peshawar, Pakistan

Now
61 °F

Clear.


Feels Like: 61 °F
Forecast: 22 / 63 °F
Wind: No wind

Location: Peshawar Airport

Current Time: Dec 27, 2014 at 7:37:12 PM

Latest Report: Dec 27, 2014 at 7:00 PM


Visibility: 2 mi

Pressure: 30.01 "Hg

Humidity: 42%

Dew point: 37 °F

Location of PeshawarLocation

Historic Weather in Peshawar — Graph

°F

Peshawar temperature yesterday

Maximum temperature yesterday: 75 °F (at 2:00 PM)
Minimum temperature yesterday: 41 °F (at 5:00 AM)
Average temperature yesterday: 56 °F

Past Weeks' High & Low Weather Summary

 TemperatureHumidityPressure
High75 °F (Dec 26, 2:00 PM)100% (Dec 17, 6:00 AM)30.27 "Hg (Dec 17, 6:00 AM)
Low39 °F (Dec 16, 6:00 AM)24% (Dec 26, 2:00 PM)29.89 "Hg (Dec 25, 4:00 PM)
Average50 °F68%30.09 "Hg
* Reported Dec 12 6:00 PM — Dec 27 6:00 PM, Peshawar, Weather by CustomWeather, © 2014

Note: Actual official high and low records may vary slightly from our data, if they occured in-between our weather recording intervals... More about our weather records

Advertising

Peshawar weather history for previous 24 hours

 ConditionsComfort  
Time TempWeatherWind HumidityBarometerVisibility
6:00 PM
Dec 27
64 °FClear.No wind32%30.01 "Hg2 mi
5:00 PM68 °FSunny.No wind33%29.98 "Hg2 mi
4:00 PM72 °FSunny.No wind29%29.95 "Hg2 mi
3:00 PM73 °FSunny.No wind29%29.98 "Hg3 mi
2:00 PM75 °FLight snow. Cloudy.N/A27%29.98 "HgN/A
1:00 PM72 °FMild.N/A29%29.98 "HgN/A
12:00 PM70 °FMild.N/A31%30.01 "HgN/A
11:00 AM66 °FMild.N/A43%30.01 "HgN/A
9:00 AM50 °FCool.N/A62%29.98 "HgN/A
8:00 AM43 °FQuite cool.N/A76%29.98 "HgN/A
7:00 AM41 °FQuite cool.N/A87%29.95 "HgN/A
6:00 AM41 °FQuite cool.N/A87%29.92 "HgN/A
5:00 AM41 °FQuite cool.N/A87%29.92 "HgN/A
4:00 AM41 °FQuite cool.N/A87%29.95 "HgN/A
3:00 AM43 °FQuite cool.N/A71%29.95 "HgN/A
2:00 AM43 °FQuite cool.N/A71%29.95 "HgN/A
1:00 AM45 °FQuite cool.N/A66%29.95 "HgN/A
12:00 AM46 °FCool.N/A66%29.98 "HgN/A
11:00 PM
Dec 26
46 °FCool.N/A66%30.01 "HgN/A
10:00 PM48 °FClear.No wind62%30.01 "Hg2 mi
9:00 PM52 °FCool.N/A54%30.04 "HgN/A
8:00 PM54 °FCool.N/A47%30.04 "HgN/A
7:00 PM63 °FMild.N/A32%30.04 "HgN/A
Weather by CustomWeather, © 2014

See weather overviewHow to use our weather pages